User: anonymous   Login
Location: Columbia
(38.9520°N, 92.3340°W)
Time: 03:20:38
(UTC-05:00)
Language:

Iridium 22 - Orbit

View from above orbital plane
View from above orbital plane
View from above satellite
View from above satellite

Ground track
Ground track

The orbit data is extracted from the following two-line orbital elements,

1 24907U 97043E   16238.44301867  .00000113  00000-0  33272-4 0  9994
2 24907  86.3983  19.7052 0002102  94.0337 266.1099 14.34216075995432
Epoch (UTC): 25 August 2016 10:37:56
Eccentricity: 0.0002102
inclination: 86.3983°
perigee height: 776 km
apogee height: 779 km
right ascension of ascending node: 19.7052°
argument of perigee: 94.0337°
revolutions per day: 14.34216075
mean anomaly at epoch: 266.1099°
orbit number at epoch: 99543

The dashed part of the orbit path shows where the satellite is in the earth's shadow,  

DLR